User: anonymous   Login
Location: ScottNC Observatory
(36.0892°N, 80.4832°W)
Time: 09:23:52
(UTC-04:00)
Language:

Oscar 19 - Orbit

View from above orbital plane
View from above orbital plane
View from above satellite
View from above satellite

Ground track
Ground track

The orbit data is extracted from the following two-line orbital elements,

1 20442U 90005G   19295.84639171 -.00000003 +00000-0 +15164-4 0  9996
2 20442 098.6601 237.6948 0012483 133.7785 226.4433 14.32935632554382
Epoch (UTC): 22 October 2019 20:18:48
Eccentricity: 0.0012483
inclination: 98.6601°
perigee height: 773 km
apogee height: 791 km
right ascension of ascending node: 237.6948°
argument of perigee: 133.7785°
revolutions per day: 14.32935632
mean anomaly at epoch: 226.4433°
orbit number at epoch: 55438

The dashed part of the orbit path shows where the satellite is in the earth's shadow,  

DLR